YC0TBU-4 Weather Reports


time (UTC)temp
C
wind
direction
speed
KPH
gust
KPH
rain 1hr
cm
rain 24hr
cm
rain mn
cm
humidity
%
barometer
mb
20260508101407 31 0.0 0.0 0.00 0.00 0.00 37 1007.3
20260508095832 31 0.0 0.0 0.00 0.00 0.00 37 1007.2
20260508094257 31 0.0 0.0 0.00 0.00 0.00 36 1007.0
20260508092722 31 0.0 0.0 0.00 0.00 0.00 35 1006.9
20260508091147 31 0.0 0.0 0.00 0.00 0.00 37 1007.1
20260508085612 30 0.0 0.0 0.00 0.00 0.00 37 1006.2
20260508084037 31 0.0 0.0 0.00 0.00 0.00 35 1005.7
20260508082502 30 0.0 0.0 0.00 0.00 0.00 36 1005.9
20260508080927 30 0.0 0.0 0.00 0.00 0.00 37 1006.0
20260508075336 31 0.0 0.0 0.00 0.00 0.00 36 1006.3
20260508073801 30 0.0 0.0 0.00 0.00 0.00 37 1006.5
20260508072225 31 0.0 0.0 0.00 0.00 0.00 37 1006.3
20260508070634 31 0.0 0.0 0.00 0.00 0.00 36 1006.9
20260508065059 32 0.0 0.0 0.00 0.00 0.00 34 1008.1
20260508063524 33 0.0 0.0 0.00 0.00 0.00 33 1007.5
20260508061949 32 0.0 0.0 0.00 0.00 0.00 34 1008.3
20260508060414 32 0.0 0.0 0.00 0.00 0.00 34 1008.3
20260508054839 32 0.0 0.0 0.00 0.00 0.00 34 1007.9
20260508053304 32 0.0 0.0 0.00 0.00 0.00 31 1007.8
20260508051729 32 0.0 0.0 0.00 0.00 0.00 31 1008.1
20260508050106 33 0.0 0.0 0.00 0.00 0.00 31 1008.4
20260508044531 32 0.0 0.0 0.00 0.00 0.00 32 1008.3
20260508042956 33 0.0 0.0 0.00 0.00 0.00 31 1008.9
20260508041421 32 0.0 0.0 0.00 0.00 0.00 33 1009.8
20260508035846 31 0.0 0.0 0.00 0.00 0.00 35 1009.7
20260508034311 32 0.0 0.0 0.00 0.00 0.00 35 1009.5
20260508032736 32 0.0 0.0 0.00 0.00 0.00 35 1010.0
20260508031201 32 0.0 0.0 0.00 0.00 0.00 35 1010.4
20260508025626 32 0.0 0.0 0.00 0.00 0.00 35 1010.4
20260508024035 32 0.0 0.0 0.00 0.00 0.00 35 1010.4
20260508022500 32 0.0 0.0 0.00 0.00 0.00 35 1010.5
20260508020924 32 0.0 0.0 0.00 0.00 0.00 35 1010.3
20260508015349 32 0.0 0.0 0.00 0.00 0.00 35 1010.4
20260508013814 32 0.0 0.0 0.00 0.00 0.00 36 1010.3
20260508012239 32 0.0 0.0 0.00 0.00 0.00 35 1010.3
20260508010704 32 0.0 0.0 0.00 0.00 0.00 35 1009.5
20260508005129 32 0.0 0.0 0.00 0.00 0.00 35 1009.6
20260508003554 32 0.0 0.0 0.00 0.00 0.00 36 1009.7
20260508002020 32 0.0 0.0 0.00 0.00 0.00 35 1009.6
20260508000444 32 0.0 0.0 0.00 0.00 0.00 36 1009.0
20260507234909 32 0.0 0.0 0.00 0.00 0.00 36 1009.0
20260507233334 32 0.0 0.0 0.00 0.00 0.00 36 1009.0
20260507231759 32 0.0 0.0 0.00 0.00 0.00 36 1009.1
20260507230224 32 0.0 0.0 0.00 0.00 0.00 36 1009.3
20260507224649 32 0.0 0.0 0.00 0.00 0.00 36 1009.4
20260507223114 32 0.0 0.0 0.00 0.00 0.00 36 1009.3
20260507221539 32 0.0 0.0 0.00 0.00 0.00 36 1007.9
20260507220010 32 0.0 0.0 0.00 0.00 0.00 35 1008.8
20260507214413 32 0.0 0.0 0.00 0.00 0.00 36 1008.8
20260507212838 32 0.0 0.0 0.00 0.00 0.00 36 1009.7
20260507211303 32 0.0 0.0 0.00 0.00 0.00 36 1009.5
20260507205728 32 0.0 0.0 0.00 0.00 0.00 35 1009.1
20260507204153 32 0.0 0.0 0.00 0.00 0.00 35 1009.0
20260507202618 32 0.0 0.0 0.00 0.00 0.00 35 1009.1
20260507201043 32 0.0 0.0 0.00 0.00 0.00 35 1008.9
20260507195508 32 0.0 0.0 0.00 0.00 0.00 35 1009.0
20260507193933 32 0.0 0.0 0.00 0.00 0.00 35 1009.2
20260507192358 32 0.0 0.0 0.00 0.00 0.00 35 1009.4
20260507190823 32 0.0 0.0 0.00 0.00 0.00 35 1009.3
20260507185232 33 0.0 0.0 0.00 0.00 0.00 34 1009.7
20260507183657 33 0.0 0.0 0.00 0.00 0.00 34 1010.1
20260507182122 33 0.0 0.0 0.00 0.00 0.00 33 1009.8
20260507180547 33 0.0 0.0 0.00 0.00 0.00 33 1010.4
20260507175012 32 0.0 0.0 0.00 0.00 0.00 32 1010.8
20260507173437 32 0.0 0.0 0.00 0.00 0.00 34 1011.1
20260507171902 28 0.0 0.0 0.00 0.00 0.00 42 1011.1
20260507170327 30 0.0 0.0 0.00 0.00 0.00 40 1011.6
20260507164752 30 0.0 0.0 0.00 0.00 0.00 40 1011.4
20260507163216 30 0.0 0.0 0.00 0.00 0.00 40 1011.8
20260507161641 31 0.0 0.0 0.00 0.00 0.00 38 1011.9
20260507160106 31 0.0 0.0 0.00 0.00 0.00 38 1012.0
20260507154531 29 0.0 0.0 0.00 0.00 0.00 42 1011.9
20260507153008 29 0.0 0.0 0.00 0.00 0.00 42 1011.7
20260507151405 28 0.0 0.0 0.00 0.00 0.00 43 1011.4
20260507145832 30 0.0 0.0 0.00 0.00 0.00 40 1011.1
20260507144255 31 0.0 0.0 0.00 0.00 0.00 39 1011.4
20260507142720 30 0.0 0.0 0.00 0.00 0.00 39 1011.3
20260507141145 30 0.0 0.0 0.00 0.00 0.00 40 1011.6
20260507135610 28 0.0 0.0 0.00 0.00 0.00 42 1010.4
20260507134035 28 0.0 0.0 0.00 0.00 0.00 43 1010.6
20260507132500 28 0.0 0.0 0.00 0.00 0.00 43 1010.2
20260507130925 28 0.0 0.0 0.00 0.00 0.00 43 1010.3
20260507125350 27 0.0 0.0 0.00 0.00 0.00 44 1010.2
20260507123815 28 0.0 0.0 0.00 0.00 0.00 42 1009.7
20260507122208 27 0.0 0.0 0.00 0.00 0.00 45 1008.7
20260507120633 28 0.0 0.0 0.00 0.00 0.00 43 1007.7
20260507115058 28 0.0 0.0 0.00 0.00 0.00 45 1008.2
20260507113506 30 0.0 0.0 0.00 0.00 0.00 42 1007.1
20260507111931 29 0.0 0.0 0.00 0.00 0.00 42 1007.5
20260507110356 29 0.0 0.0 0.00 0.00 0.00 41 1008.1
20260507104821 30 0.0 0.0 0.00 0.00 0.00 40 1007.9
20260507103246 30 0.0 0.0 0.00 0.00 0.00 40 1007.3